QPF
0.00 0.00 0.00 0.00 0.00 0.00 0.00 0.00 0.00 0.00 0.00 0.00 0.00 0.00 0.00 0.00 0.00 0.00 0.00 0.00 0.00 0.00 0.00 0.00 0.00 0.00 0.00 0.00 0.00 0.00 0.00 0.00 0.00 0.00 0.00 0.00 0.00 0.00 0.00 0.00 0.00 0.00 0.00 0.00 0.00 0.00 0.00 0.00 0.00
0.00 0.00 0.00 0.00 0.00 0.00 0.00 0.00 0.00 0.00 0.00 0.00 0.00 0.00 0.00 0.00 0.00 0.00 0.00 0.00 0.00 0.00 0.00 0.00 0.00 0.00 0.00 0.00 0.00 0.00 0.00 0.00 0.00 0.00 0.00 0.00 0.00 0.00 0.00 0.00 0.00 0.00 0.00 0.00 0.00 0.00 0.00 0.00 0.00
0.00 0.00 0.00 0.00 0.00 0.00 0.00 0.00 0.00 0.00 0.00 0.00 0.00 0.00 0.00 0.00 0.00 0.00 0.00 0.00 0.00 0.00 0.00 0.00 0.00 0.00 0.00 0.00 0.00 0.00 0.00 0.00 0.00 0.00 0.00 0.00 0.00 0.00 0.00 0.00 0.00 0.00 0.00 0.00 0.00 0.00 0.00 0.00 0.00
0.00 0.00 0.00 0.00 0.00 0.00 0.00 0.00 0.00 0.00 0.00 0.00 0.00 0.00 0.00 0.00 0.00 0.00 0.00 0.00 0.00 0.00 0.00 0.00 0.00 0.00 0.00 0.00 0.00 0.00 0.00 0.00 0.00 0.00 0.00 0.00 0.00 0.00 0.00 0.00 0.00 0.00 0.00 0.00 0.00 0.00 0.00 0.00 0.00
0.00 0.00 0.00 0.00 0.00 0.00 0.00 0.00 0.00 0.00 0.00 0.00 0.00 0.00 0.00 0.00 0.00 0.00 0.00 0.00 0.00 0.00 0.00 0.00 0.00 0.00 0.00 0.00 0.00 0.00 0.00 0.00 0.00 0.00 0.00 0.00 0.00 0.00 0.00 0.00 0.00 0.00 0.00 0.00 0.00 0.00 0.00 0.00 0.00
0.00 0.00 0.00 0.00 0.00 0.00 0.00 0.00 0.00 0.00 0.00 0.00 0.00 0.00 0.00 0.00 0.00 0.00 0.00 0.00 0.00 0.00 0.00 0.00 0.00 0.00 0.00 0.00 0.00 0.00 0.00 0.00 0.00 0.00 0.00 0.00 0.00 0.00 0.00 0.00 0.00 0.00 0.00 0.00 0.00 0.00 0.00 0.00 0.00
0.00 0.00 0.00 0.00 0.00 0.00 0.00 0.00 0.00 0.00 0.00 0.00 0.00 0.00 0.00 0.00 0.00 0.00 0.00 0.00 0.00 0.00 0.00 0.00 0.00 0.00 0.00 0.00 0.00 0.00 0.00 0.00 0.00 0.00 0.00 0.00 0.00 0.00 0.00 0.00 0.00 0.00 0.00 0.00 0.00 0.00 0.00 0.00 0.00
0.00 0.00 0.00 0.00 0.00 0.00 0.00 0.00 0.00 0.00 0.00 0.00 0.00 0.00 0.00 0.00 0.00 0.00 0.00 0.00 0.00 0.00 0.00 0.00 0.00 0.00 0.00 0.00 0.00 0.00 0.00 0.00 0.00 0.00 0.00 0.00 0.00 0.00 0.00 0.01 0.01 0.00 0.00 0.00 0.00 0.00 0.00 0.00 0.00
0.00 0.00 0.00 0.00 0.00 0.00 0.00 0.00 0.00 0.00 0.00 0.00 0.00 0.00 0.00 0.00 0.00 0.00 0.00 0.00 0.00 0.00 0.00 0.00 0.00 0.00 0.00 0.00 0.00 0.00 0.00 0.00 0.00 0.00 0.00 0.00 0.00 0.00 0.00 0.00 0.00 0.00 0.00 0.00 0.00 0.00 0.00 0.00 0.00
0.00 0.00 0.00 0.00 0.00 0.00 0.00 0.00 0.00 0.00 0.00 0.00 0.00 0.00 0.00 0.00 0.00 0.00 0.00 0.00 0.00 0.00 0.00 0.00 0.00 0.00 0.00 0.00 0.00 0.00 0.00 0.00 0.00 0.00 0.00 0.00 0.00 0.00 0.00 0.00 0.00 0.00 0.00 0.00 0.00 0.00 0.00 0.00 0.00
0.00 0.00 0.00 0.00 0.00 0.00 0.00 0.00 0.00 0.00 0.00 0.00 0.00 0.00 0.00 0.00 0.00 0.00 0.00 0.00 0.00 0.00 0.00 0.00 0.00 0.00 0.00 0.00 0.00 0.00 0.00 0.00 0.00 0.00 0.00 0.00 0.00 0.00 0.00 0.00 0.00 0.00 0.00 0.00 0.00 0.00 0.00 0.00 0.00
0.00 0.00 0.00 0.00 0.00 0.00 0.00 0.00 0.00 0.00 0.00 0.00 0.00 0.00 0.00 0.00 0.00 0.00 0.00 0.00 0.00 0.00 0.00 0.00 0.00 0.00 0.00 0.00 0.00 0.00 0.00 0.00 0.00 0.00 0.00 0.00 0.00 0.00 0.00 0.00 0.00 0.00 0.00 0.00 0.00 0.00 0.00 0.00 0.00
0.00 0.00 0.00 0.00 0.00 0.00 0.00 0.00 0.00 0.00 0.00 0.00 0.00 0.00 0.00 0.00 0.00 0.00 0.00 0.00 0.00 0.00 0.00 0.00 0.00 0.00 0.00 0.00 0.00 0.00 0.00 0.00 0.00 0.00 0.00 0.00 0.00 0.00 0.00 0.00 0.00 0.00 0.00 0.00 0.00 0.00 0.00 0.00 0.00
0.00 0.00 0.00 0.00 0.00 0.00 0.00 0.00 0.00 0.00 0.00 0.00 0.00 0.00 0.00 0.00 0.00 0.00 0.00 0.00 0.00 0.00 0.00 0.00 0.00 0.00 0.00 0.00 0.00 0.00 0.00 0.00 0.00 0.00 0.00 0.00 0.00 0.00 0.00 0.00 0.00 0.00 0.00 0.00 0.00 0.00 0.00 0.00 0.00
0.00 0.00 0.00 0.00 0.00 0.00 0.00 0.00 0.00 0.00 0.00 0.00 0.00 0.00 0.00 0.00 0.00 0.00 0.00 0.00 0.00 0.00 0.00 0.00 0.00 0.00 0.00 0.00 0.00 0.00 0.00 0.00 0.00 0.00 0.00 0.00 0.00 0.00 0.00 0.00 0.00 0.00 0.00 0.00 0.00 0.00 0.00 0.00 0.00
0.00 0.00 0.00 0.00 0.00 0.00 0.00 0.00 0.00 0.00 0.00 0.00 0.00 0.00 0.00 0.00 0.00 0.00 0.00 0.00 0.00 0.00 0.00 0.00 0.00 0.00 0.00 0.00 0.00 0.00 0.00 0.00 0.00 0.00 0.00 0.00 0.00 0.00 0.00 0.00 0.00 0.00 0.00 0.00 0.00 0.00 0.00 0.00 0.00
0.00 0.00 0.00 0.00 0.00 0.00 0.00 0.00 0.00 0.00 0.00 0.00 0.00 0.00 0.00 0.00 0.00 0.00 0.00 0.00 0.00 0.00 0.00 0.00 0.00 0.00 0.00 0.00 0.00 0.00 0.00 0.00 0.00 0.00 0.00 0.00 0.00 0.00 0.00 0.00 0.00 0.00 0.00 0.00 0.00 0.00 0.00 0.00 0.00
0.00 0.00 0.00 0.00 0.00 0.00 0.00 0.00 0.00 0.00 0.00 0.00 0.00 0.00 0.00 0.00 0.00 0.00 0.00 0.00 0.00 0.00 0.00 0.00 0.00 0.00 0.00 0.00 0.00 0.00 0.00 0.00 0.00 0.00 0.00 0.00 0.00 0.00 0.00 0.00 0.00 0.00 0.00 0.00 0.00 0.02 0.05 0.05 0.04
0.00 0.00 0.00 0.00 0.00 0.00 0.00 0.00 0.00 0.00 0.00 0.00 0.00 0.00 0.00 0.00 0.00 0.00 0.00 0.00 0.00 0.00 0.00 0.00 0.00 0.00 0.00 0.00 0.00 0.00 0.00 0.00 0.00 0.00 0.00 0.00 0.00 0.00 0.00 0.00 0.00 0.00 0.01 0.02 0.01 0.01 0.07 0.05 0.01
0.00 0.00 0.00 0.00 0.00 0.00 0.00 0.00 0.00 0.00 0.00 0.00 0.00 0.00 0.00 0.00 0.00 0.00 0.00 0.00 0.00 0.00 0.01 0.00 0.00 0.00 0.00 0.00 0.00 0.00 0.00 0.00 0.00 0.00 0.00 0.00 0.00 0.00 0.00 0.00 0.00 0.01 0.01 0.00 0.00 0.00 0.01 0.03 0.00
0.00 0.00 0.00 0.00 0.00 0.00 0.00 0.00 0.00 0.00 0.00 0.00 0.00 0.00 0.00 0.00 0.00 0.00 0.00 0.00 0.01 0.00 0.01 0.00 0.00 0.00 0.00 0.00 0.00 0.00 0.00 0.00 0.00 0.00 0.01 0.04 0.11 0.09 0.08 0.05 0.02 0.04 0.02 0.00 0.00 0.01 0.04 0.04 0.07
0.00 0.00 0.00 0.00 0.00 0.00 0.00 0.00 0.00 0.00 0.00 0.01 0.00 0.00 0.00 0.00 0.00 0.00 0.00 0.00 0.00 0.00 0.00 0.00 0.00 0.00 0.00 0.00 0.00 0.00 0.00 0.00 0.01 0.03 0.05 0.04 0.03 0.01 0.05 0.06 0.09 0.11 0.13 0.16 0.13 0.13 0.11 0.09 0.08
0.00 0.00 0.00 0.00 0.00 0.00 0.00 0.00 0.00 0.00 0.00 0.00 0.00 0.00 0.00 0.00 0.00 0.00 0.00 0.00 0.00 0.00 0.00 0.00 0.00 0.00 0.00 0.00 0.00 0.00 0.00 0.01 0.03 0.02 0.02 0.00 0.00 0.00 0.00 0.01 0.02 0.03 0.03 0.02 0.02 0.02 0.01 0.01 0.00
0.00 0.00 0.00 0.00 0.00 0.00 0.00 0.00 0.00 0.00 0.00 0.00 0.00 0.00 0.00 0.00 0.00 0.00 0.00 0.00 0.00 0.00 0.00 0.00 0.00 0.00 0.00 0.00 0.00 0.00 0.00 0.00 0.00 0.00 0.00 0.00 0.00 0.00 0.00 0.00 0.00 0.00 0.00 0.00 0.00 0.00 0.00 0.00 0.00
0.00 0.00 0.00 0.00 0.00 0.00 0.00 0.00 0.00 0.00 0.00 0.00 0.00 0.00 0.00 0.00 0.00 0.00 0.00 0.00 0.00 0.00 0.00 0.00 0.00 0.00 0.00 0.00 0.00 0.00 0.00 0.00 0.00 0.00 0.00 0.00 0.00 0.00 0.00 0.00 0.00 0.00 0.00 0.00 0.00 0.00 0.00 0.00 0.00
0.00 0.00 0.00 0.00 0.00 0.00 0.00 0.00 0.00 0.00 0.00 0.00 0.00 0.00 0.00 0.00 0.01 0.03 0.02 0.02 0.01 0.00 0.00 0.00 0.00 0.00 0.00 0.00 0.00 0.00 0.00 0.00 0.00 0.00 0.00 0.00 0.00 0.00 0.00 0.00 0.00 0.00 0.00 0.00 0.00 0.00 0.00 0.00 0.00
0.00 0.00 0.00 0.00 0.00 0.00 0.00 0.00 0.00 0.00 0.00 0.00 0.00 0.00 0.00 0.00 0.00 0.04 0.05 0.04 0.02 0.00 0.00 0.00 0.00 0.00 0.00 0.00 0.00 0.00 0.00 0.00 0.00 0.00 0.00 0.00 0.00 0.00 0.00 0.00 0.00 0.00 0.00 0.00 0.00 0.00 0.00 0.00 0.00
0.00 0.00 0.00 0.00 0.00 0.00 0.00 0.00 0.00 0.00 0.00 0.00 0.00 0.00 0.00 0.00 0.00 0.01 0.02 0.01 0.01 0.00 0.00 0.00 0.00 0.00 0.00 0.00 0.00 0.00 0.00 0.00 0.00 0.00 0.00 0.00 0.00 0.00 0.00 0.00 0.00 0.00 0.00 0.00 0.00 0.00 0.00 0.00 0.00
0.00 0.00 0.00 0.00 0.00 0.00 0.00 0.00 0.00 0.00 0.00 0.00 0.00 0.00 0.00 0.00 0.00 0.00 0.00 0.00 0.00 0.00 0.00 0.00 0.00 0.00 0.00 0.00 0.00 0.00 0.00 0.00 0.00 0.00 0.00 0.00 0.00 0.00 0.00 0.00 0.00 0.00 0.00 0.00 0.00 0.00 0.00 0.00 0.00
0.00 0.00 0.00 0.00 0.00 0.00 0.00 0.00 0.00 0.00 0.00 0.00 0.00 0.00 0.00 0.00 0.00 0.00 0.00 0.00 0.00 0.00 0.00 0.00 0.00 0.00 0.00 0.00 0.00 0.00 0.00 0.00 0.00 0.00 0.00 0.00 0.00 0.00 0.00 0.00 0.00 0.00 0.00 0.00 0.00 0.00 0.00 0.00 0.00
MSLP
1011.46 1010.70 1009.95 1008.81 1007.04 1004.95 1003.86 1004.18 1004.64 1004.60 1004.73 1005.44 1005.63 1005.44 1005.58 1006.54 1007.16 1008.71 1010.40 1010.91 1011.20 1012.14 1013.70 1014.95 1015.60 1015.88 1016.10 1016.40 1016.54 1016.77 1017.02 1017.40 1017.65 1017.93 1018.17 1018.44 1018.71 1018.94 1019.14 1019.27 1019.43 1019.64 1019.70 1019.68 1019.77 1019.78 1019.97 1020.04 1020.16
1010.29 1010.15 1009.17 1007.08 1005.52 1003.51 1003.25 1004.17 1004.39 1004.62 1005.47 1005.61 1005.71 1005.72 1006.00 1007.23 1008.58 1009.94 1010.69 1011.08 1011.53 1012.38 1013.80 1014.69 1015.90 1016.13 1016.41 1016.78 1016.87 1017.06 1017.38 1017.66 1017.98 1018.31 1018.53 1018.76 1018.97 1019.12 1019.22 1019.42 1019.68 1019.79 1020.00 1020.08 1019.99 1020.10 1020.27 1020.47 1020.44
1010.34 1009.83 1007.69 1005.72 1004.18 1002.79 1002.87 1004.12 1004.69 1005.16 1005.33 1005.53 1005.48 1005.79 1006.72 1008.33 1009.51 1009.89 1010.44 1011.43 1011.73 1012.64 1013.73 1014.97 1016.08 1016.47 1016.70 1017.07 1017.26 1017.50 1017.75 1017.92 1018.19 1018.50 1018.77 1018.94 1019.14 1019.40 1019.56 1019.62 1019.78 1020.05 1020.23 1020.34 1020.42 1020.32 1020.49 1020.80 1020.87
1009.71 1008.88 1007.65 1005.63 1003.15 1003.06 1003.51 1004.28 1004.61 1004.86 1005.29 1005.58 1005.68 1006.27 1008.36 1009.75 1009.69 1010.13 1011.22 1011.59 1012.03 1012.48 1013.56 1015.71 1016.32 1016.74 1017.00 1017.32 1017.62 1017.82 1018.00 1018.16 1018.42 1018.65 1018.96 1019.16 1019.33 1019.56 1019.74 1019.86 1020.02 1020.21 1020.40 1020.59 1020.65 1020.67 1020.76 1020.97 1021.24
1009.29 1007.55 1005.69 1004.35 1003.00 1003.20 1003.93 1004.33 1004.79 1004.45 1004.95 1005.34 1005.70 1006.44 1008.30 1010.14 1010.32 1010.84 1011.38 1011.66 1012.06 1012.43 1013.57 1015.59 1016.53 1016.90 1017.23 1017.54 1017.88 1018.15 1018.34 1018.58 1018.68 1018.95 1019.21 1019.48 1019.72 1019.85 1020.03 1020.16 1020.32 1020.37 1020.62 1020.74 1020.96 1020.98 1021.04 1021.23 1021.36
1008.10 1006.78 1004.83 1003.21 1002.50 1002.97 1003.73 1004.16 1004.60 1004.96 1005.14 1005.45 1005.71 1006.14 1008.42 1010.19 1010.39 1010.97 1011.50 1011.78 1012.04 1012.69 1014.05 1015.46 1016.77 1017.18 1017.52 1017.85 1018.24 1018.40 1018.59 1018.74 1019.00 1019.16 1019.37 1019.64 1019.95 1020.11 1020.27 1020.36 1020.54 1020.79 1020.83 1021.05 1021.16 1021.24 1021.34 1021.39 1021.55
1007.23 1006.01 1004.10 1002.85 1002.03 1002.41 1003.30 1004.20 1004.21 1004.24 1004.67 1005.20 1005.38 1005.78 1008.53 1009.74 1010.48 1011.04 1011.54 1011.92 1012.40 1012.98 1014.00 1015.72 1016.22 1017.18 1017.81 1018.13 1018.39 1018.66 1018.83 1018.95 1019.16 1019.43 1019.61 1019.85 1020.08 1020.36 1020.41 1020.60 1020.80 1020.88 1021.16 1021.25 1021.36 1021.44 1021.52 1021.65 1021.69
1007.37 1006.05 1004.02 1003.20 1002.46 1002.48 1003.35 1004.13 1004.42 1004.44 1004.41 1005.23 1005.44 1005.62 1007.50 1009.24 1010.50 1011.09 1011.56 1012.00 1012.59 1013.21 1013.82 1015.92 1015.59 1016.43 1017.13 1017.93 1018.60 1018.81 1019.04 1019.23 1019.35 1019.54 1019.77 1019.97 1020.22 1020.51 1020.79 1020.85 1021.00 1021.14 1021.16 1021.35 1021.46 1021.63 1021.72 1021.80 1021.85
1007.93 1006.09 1003.62 1002.88 1002.77 1002.62 1003.60 1003.54 1004.44 1004.83 1004.63 1005.13 1005.54 1005.85 1006.59 1009.18 1010.19 1010.76 1011.35 1011.90 1012.48 1013.15 1013.82 1014.98 1014.82 1015.68 1016.17 1016.89 1018.32 1019.04 1019.33 1019.43 1019.57 1019.69 1019.91 1020.03 1019.37 1020.02 1020.44 1020.44 1020.93 1021.27 1021.32 1021.43 1021.48 1021.59 1021.73 1021.78 1021.70
1007.23 1005.40 1003.76 1003.12 1003.33 1003.07 1003.62 1003.87 1004.35 1004.59 1004.46 1005.06 1006.51 1007.30 1008.24 1009.19 1009.57 1010.03 1010.77 1011.40 1012.33 1013.03 1013.52 1014.15 1014.45 1015.05 1015.55 1016.53 1017.78 1018.10 1018.51 1018.75 1018.80 1018.99 1019.51 1018.92 1018.81 1019.22 1019.33 1020.35 1021.12 1021.33 1021.40 1021.52 1021.59 1021.69 1021.65 1021.52 1020.07
1006.45 1005.05 1004.33 1004.78 1004.62 1004.32 1003.96 1004.34 1004.62 1004.48 1004.14 1004.60 1005.92 1007.48 1008.31 1008.93 1009.35 1009.82 1010.47 1011.25 1012.37 1013.34 1013.90 1013.93 1014.64 1015.25 1015.34 1016.25 1017.21 1017.33 1017.69 1018.00 1018.48 1018.82 1019.13 1018.78 1018.97 1019.58 1019.59 1019.81 1020.54 1020.58 1021.25 1020.62 1020.99 1021.13 1020.75 1019.72 1019.74
1006.20 1005.60 1005.42 1005.26 1005.16 1005.02 1004.56 1004.67 1004.55 1004.51 1004.04 1004.58 1005.62 1007.56 1008.28 1008.27 1008.85 1009.57 1010.32 1011.20 1012.26 1013.22 1014.41 1014.41 1014.86 1015.77 1015.71 1016.14 1016.80 1016.96 1017.10 1017.57 1018.06 1018.54 1019.08 1018.98 1019.17 1019.26 1019.06 1019.02 1019.16 1019.63 1019.68 1019.59 1019.95 1019.42 1019.72 1020.00 1020.16
1006.14 1005.59 1005.78 1005.81 1005.51 1005.05 1004.97 1004.89 1004.55 1004.30 1004.57 1005.45 1005.97 1007.37 1007.97 1008.37 1008.80 1009.57 1010.39 1011.42 1012.39 1013.22 1014.69 1015.51 1016.07 1017.01 1016.03 1016.52 1016.76 1016.98 1017.16 1017.63 1017.76 1018.34 1018.88 1018.75 1018.86 1019.06 1019.16 1019.13 1019.19 1019.24 1019.27 1019.49 1019.52 1019.64 1019.73 1019.78 1019.92
1005.48 1005.84 1005.56 1005.24 1004.98 1005.03 1004.79 1004.48 1004.56 1003.96 1004.87 1005.20 1006.03 1006.81 1007.66 1008.16 1008.84 1009.82 1010.67 1011.53 1012.51 1013.12 1014.19 1015.83 1016.63 1017.04 1016.18 1016.66 1016.89 1017.09 1017.39 1017.73 1018.07 1018.08 1018.39 1018.99 1018.95 1019.16 1019.05 1019.25 1019.33 1019.29 1019.37 1019.32 1019.37 1019.44 1019.69 1019.62 1019.53
1005.71 1005.60 1005.03 1004.90 1004.62 1004.44 1004.70 1004.17 1003.65 1003.81 1004.72 1005.08 1005.73 1006.49 1007.42 1008.16 1009.15 1009.96 1010.87 1011.78 1012.71 1013.35 1014.02 1015.59 1016.56 1017.07 1016.86 1016.58 1017.01 1017.21 1017.34 1017.53 1017.99 1017.97 1018.53 1019.06 1019.28 1019.34 1019.30 1019.09 1019.12 1019.21 1019.36 1019.36 1019.37 1019.54 1019.73 1019.86 1019.71
1005.59 1005.42 1004.02 1003.27 1003.91 1004.05 1004.24 1002.77 1003.02 1003.90 1004.45 1005.02 1005.56 1006.39 1007.46 1008.47 1009.34 1010.08 1011.05 1011.97 1012.83 1013.34 1014.16 1015.05 1016.08 1016.86 1017.21 1016.52 1016.79 1016.91 1017.14 1017.42 1017.72 1017.89 1018.14 1018.80 1019.08 1019.41 1019.54 1019.21 1019.11 1019.12 1019.40 1019.38 1019.39 1019.44 1019.46 1019.47 1019.53
1005.17 1003.99 1003.39 1002.85 1002.94 1003.30 1003.54 1001.74 1002.66 1003.84 1004.31 1004.93 1005.88 1006.60 1007.48 1008.67 1009.59 1010.42 1011.17 1011.88 1012.70 1013.33 1014.07 1014.82 1015.50 1016.11 1016.65 1016.54 1017.13 1017.44 1017.12 1017.37 1017.35 1017.73 1017.98 1018.53 1018.85 1019.07 1019.49 1019.18 1019.07 1019.59 1019.49 1019.39 1019.42 1019.34 1019.61 1019.76 1019.68
1003.70 1003.80 1003.13 1002.22 1002.72 1002.97 1002.84 1001.63 1002.77 1003.79 1004.13 1004.88 1005.76 1006.67 1007.89 1009.08 1010.36 1011.17 1011.46 1011.81 1012.48 1013.16 1013.88 1014.46 1014.97 1015.41 1016.01 1016.17 1016.65 1016.80 1016.92 1017.12 1017.17 1017.40 1017.65 1018.18 1018.55 1018.86 1019.15 1019.02 1019.27 1019.57 1019.40 1019.32 1019.30 1019.88 1019.96 1020.57 1020.78
1002.87 1002.90 1001.99 1001.69 1002.39 1002.29 1002.05 1001.79 1002.69 1003.74 1004.11 1004.80 1005.67 1006.86 1008.09 1009.44 1011.37 1011.90 1012.32 1012.66 1012.76 1013.17 1013.73 1014.25 1014.69 1015.15 1015.61 1015.81 1016.04 1016.27 1016.48 1016.81 1017.07 1017.31 1017.91 1018.34 1018.58 1018.82 1019.06 1018.99 1019.11 1019.32 1019.52 1019.98 1020.42 1020.33 1020.65 1021.11 1021.17
1002.99 1002.16 1001.78 1002.53 1002.66 1002.15 1001.80 1002.15 1003.27 1004.14 1004.23 1004.89 1005.88 1007.13 1008.39 1010.33 1011.26 1012.11 1012.72 1012.85 1012.93 1013.24 1013.70 1014.06 1014.46 1015.07 1015.55 1015.55 1015.68 1015.77 1016.05 1016.32 1016.52 1016.97 1017.85 1018.30 1018.57 1018.75 1018.82 1019.00 1018.79 1019.19 1020.09 1020.82 1020.91 1021.25 1021.46 1021.31 1021.28
1002.53 1001.84 1001.32 1001.52 1002.47 1002.52 1002.32 1002.90 1004.02 1004.68 1005.01 1005.54 1006.43 1007.64 1008.65 1009.87 1010.81 1012.03 1012.59 1013.04 1013.54 1013.62 1013.95 1014.11 1014.39 1014.88 1015.39 1015.49 1015.84 1016.22 1016.31 1016.71 1016.93 1017.58 1018.47 1019.01 1019.35 1019.52 1019.58 1019.84 1019.90 1020.39 1020.50 1020.17 1021.03 1021.13 1021.60 1021.44 1021.46
1001.59 1001.60 1001.40 1001.70 1001.94 1001.16 1001.99 1001.37 1003.01 1004.14 1005.31 1006.22 1007.04 1007.96 1008.88 1009.86 1010.70 1011.49 1012.36 1013.02 1013.56 1014.09 1014.67 1014.99 1015.42 1015.42 1015.38 1015.71 1015.61 1015.80 1015.84 1016.00 1016.70 1017.95 1019.03 1019.41 1019.52 1019.74 1020.17 1020.19 1020.29 1020.42 1020.42 1020.64 1021.08 1021.30 1021.76 1021.68 1021.45
1001.21 1001.12 1001.35 1001.33 1001.25 1000.96 1001.58 1001.28 1000.70 1002.91 1004.14 1005.06 1006.17 1007.40 1008.71 1009.82 1010.60 1011.27 1011.84 1012.53 1013.18 1014.14 1014.55 1015.22 1015.60 1015.69 1015.74 1015.67 1015.63 1015.76 1016.13 1016.86 1017.99 1018.72 1019.18 1019.77 1020.23 1020.54 1020.77 1020.90 1020.98 1020.95 1021.01 1021.29 1021.52 1021.59 1021.72 1021.76 1021.68
1001.35 1001.56 1001.35 1001.22 1000.88 1000.67 1000.13 1000.82 1000.65 1001.63 1002.49 1003.49 1005.05 1006.28 1007.70 1008.74 1010.11 1010.97 1011.93 1012.72 1013.46 1014.04 1014.48 1015.05 1015.55 1015.86 1016.07 1016.14 1016.21 1016.24 1016.82 1017.57 1018.28 1018.98 1019.43 1020.05 1020.50 1020.81 1021.00 1021.17 1021.28 1021.29 1021.31 1021.48 1021.71 1021.81 1021.80 1021.84 1021.79
1001.44 1000.72 1000.48 1000.61 1000.19 999.78 1000.74 1001.01 1000.32 1000.86 1001.91 1002.60 1003.64 1005.31 1006.85 1008.06 1009.49 1010.70 1011.69 1012.37 1013.25 1013.76 1014.32 1014.91 1015.56 1015.94 1016.23 1016.35 1016.63 1016.93 1017.35 1017.69 1018.33 1018.96 1019.43 1019.69 1019.98 1020.18 1020.54 1020.38 1020.51 1020.38 1020.87 1020.95 1021.07 1021.39 1021.54 1021.73 1021.90
1000.46 1000.10 998.89 999.51 999.40 999.65 1001.45 1000.90 1000.72 1002.04 1002.50 1002.69 1003.34 1004.56 1006.29 1007.74 1009.28 1010.71 1011.47 1012.38 1013.05 1013.83 1014.38 1014.98 1015.56 1016.07 1016.29 1016.51 1016.77 1017.32 1017.70 1017.77 1018.16 1018.57 1018.91 1019.12 1019.47 1020.10 1020.55 1020.75 1020.89 1021.02 1021.03 1020.97 1020.98 1020.74 1020.92 1021.26 1021.45
1000.05 1000.20 1000.30 1000.09 1000.40 1000.13 1000.53 1001.69 1002.36 1003.00 1003.55 1004.12 1004.64 1005.11 1006.11 1007.71 1009.25 1010.70 1011.97 1012.58 1013.15 1013.73 1014.53 1014.92 1015.59 1016.08 1016.53 1016.86 1017.22 1017.59 1017.77 1018.01 1018.21 1018.87 1019.38 1019.74 1020.04 1020.46 1020.76 1020.96 1021.15 1021.29 1021.37 1021.35 1021.28 1021.06 1021.23 1021.29 1021.37
999.82 1000.03 1000.66 1000.65 1000.03 1000.48 1000.77 1001.73 1001.42 1003.13 1003.57 1004.28 1004.93 1005.66 1006.43 1007.71 1009.31 1010.88 1012.07 1012.70 1013.20 1013.77 1014.54 1015.21 1015.80 1016.17 1016.64 1017.07 1017.51 1017.86 1018.15 1018.47 1018.84 1019.10 1019.23 1019.70 1020.23 1020.53 1020.85 1021.07 1021.26 1021.35 1021.54 1021.66 1021.55 1021.43 1021.59 1021.52 1021.40
1000.57 1000.23 1000.53 1000.69 1000.72 1000.33 1000.76 1001.94 1003.62 1004.09 1005.01 1005.32 1005.57 1006.27 1006.94 1007.90 1009.19 1010.53 1011.50 1012.27 1013.02 1013.82 1014.49 1015.06 1015.69 1016.13 1016.69 1017.06 1017.58 1018.09 1018.40 1018.77 1019.02 1019.22 1019.53 1019.95 1020.35 1020.62 1020.85 1021.08 1021.26 1021.33 1021.55 1021.64 1021.72 1021.72 1021.69 1021.61 1021.73
1000.40 1000.10 1000.49 1000.60 1001.23 1001.58 1002.15 1003.46 1004.97 1005.67 1006.25 1006.73 1006.85 1007.33 1007.61 1008.27 1009.15 1010.22 1011.17 1011.95 1012.76 1013.55 1014.14 1014.91 1015.61 1016.09 1016.59 1017.21 1017.52 1018.03 1018.49 1018.75 1019.07 1019.31 1019.63 1020.08 1020.35 1020.47 1020.66 1020.88 1021.11 1021.29 1021.53 1021.73 1021.76 1021.68 1021.70 1021.59 1021.48
Thickness
5811 5816 5823 5820 5800 5814 5805 5810 5826 5820 5824 5835 5838 5833 5829 5829 5817 5801 5826 5828 5827 5819 5805 5795 5790 5787 5785 5781 5780 5778 5776 5774 5772 5769 5766 5763 5760 5759 5757 5755 5753 5752 5751 5753 5752 5752 5751 5751 5750
5819 5820 5822 5819 5798 5798 5808 5821 5814 5825 5827 5837 5836 5834 5828 5812 5825 5816 5816 5826 5823 5815 5802 5795 5786 5785 5783 5779 5777 5775 5772 5771 5769 5766 5763 5761 5758 5757 5757 5754 5751 5751 5750 5750 5751 5751 5749 5748 5749
5817 5821 5812 5810 5810 5805 5807 5818 5818 5825 5836 5831 5830 5841 5829 5810 5817 5820 5827 5821 5818 5810 5800 5790 5782 5780 5779 5775 5774 5772 5769 5768 5766 5763 5761 5759 5757 5755 5753 5754 5752 5749 5747 5746 5746 5750 5748 5746 5746
5811 5812 5813 5798 5807 5821 5817 5820 5827 5826 5832 5836 5835 5819 5821 5821 5819 5824 5821 5818 5814 5810 5799 5783 5778 5775 5774 5771 5769 5767 5766 5766 5764 5762 5759 5757 5757 5755 5753 5752 5751 5748 5747 5745 5746 5746 5747 5746 5743
5810 5811 5797 5799 5812 5821 5823 5827 5826 5826 5828 5830 5834 5818 5812 5814 5824 5822 5817 5817 5810 5809 5798 5782 5775 5772 5770 5768 5764 5763 5762 5760 5761 5758 5756 5754 5753 5753 5750 5749 5748 5748 5745 5745 5743 5744 5744 5743 5742
5793 5807 5791 5796 5812 5822 5825 5831 5826 5820 5826 5828 5826 5828 5813 5819 5818 5817 5816 5813 5810 5805 5793 5782 5773 5770 5766 5764 5759 5759 5758 5758 5756 5756 5755 5752 5750 5749 5748 5747 5746 5743 5743 5741 5740 5740 5740 5740 5740
5791 5793 5796 5809 5816 5816 5819 5832 5824 5828 5827 5822 5839 5822 5814 5814 5818 5817 5814 5812 5806 5800 5791 5778 5774 5767 5762 5760 5758 5755 5754 5754 5753 5752 5752 5750 5748 5745 5745 5743 5742 5743 5740 5739 5739 5738 5737 5737 5738
5795 5795 5796 5805 5803 5804 5823 5822 5831 5827 5825 5842 5843 5819 5809 5817 5816 5815 5812 5809 5804 5798 5792 5776 5778 5771 5765 5758 5754 5753 5751 5750 5750 5749 5748 5747 5746 5744 5741 5742 5740 5738 5739 5737 5737 5735 5735 5735 5735
5793 5779 5792 5801 5801 5809 5821 5818 5830 5837 5830 5833 5837 5836 5839 5823 5818 5812 5807 5803 5800 5796 5792 5782 5783 5776 5771 5765 5754 5750 5747 5747 5746 5746 5745 5745 5749 5744 5742 5742 5739 5736 5737 5736 5736 5735 5733 5733 5735
5776 5780 5795 5816 5813 5808 5812 5815 5819 5819 5823 5822 5817 5824 5824 5819 5816 5809 5803 5798 5794 5791 5791 5788 5784 5780 5776 5767 5757 5755 5751 5749 5749 5748 5745 5749 5750 5748 5748 5740 5735 5733 5733 5733 5732 5731 5732 5734 5743
5779 5781 5800 5795 5801 5806 5806 5804 5816 5813 5814 5825 5815 5811 5815 5815 5812 5807 5804 5799 5791 5788 5786 5789 5782 5777 5776 5768 5760 5759 5757 5754 5750 5747 5746 5748 5748 5743 5743 5742 5736 5736 5730 5734 5733 5732 5735 5743 5743
5764 5784 5787 5789 5793 5792 5793 5801 5801 5813 5821 5835 5830 5815 5812 5814 5811 5806 5802 5797 5792 5786 5779 5782 5778 5770 5771 5768 5762 5761 5760 5756 5751 5747 5743 5744 5744 5744 5745 5746 5745 5741 5739 5740 5738 5742 5741 5739 5738
5759 5774 5778 5780 5783 5789 5796 5789 5795 5807 5823 5826 5825 5813 5811 5811 5812 5807 5803 5797 5790 5783 5774 5769 5766 5760 5767 5763 5760 5758 5757 5753 5751 5747 5743 5744 5744 5743 5743 5743 5743 5742 5741 5739 5739 5737 5737 5737 5737
5766 5764 5771 5777 5781 5783 5784 5790 5795 5810 5818 5817 5815 5812 5811 5810 5807 5799 5795 5790 5784 5783 5775 5765 5760 5757 5763 5759 5757 5755 5753 5750 5747 5747 5745 5740 5741 5740 5741 5740 5740 5740 5740 5739 5738 5736 5734 5735 5735
5757 5749 5765 5768 5778 5779 5786 5775 5788 5810 5812 5808 5809 5809 5808 5807 5802 5793 5790 5783 5779 5778 5775 5763 5757 5753 5755 5757 5754 5752 5751 5749 5745 5745 5741 5737 5736 5735 5736 5738 5739 5739 5737 5736 5735 5733 5731 5729 5730
5738 5745 5746 5776 5775 5780 5777 5771 5797 5805 5804 5800 5804 5802 5801 5798 5794 5792 5787 5780 5775 5774 5768 5764 5757 5752 5749 5755 5753 5752 5749 5747 5745 5744 5741 5737 5734 5732 5730 5732 5733 5735 5733 5733 5732 5731 5730 5730 5728
5731 5729 5743 5757 5781 5775 5771 5784 5792 5800 5798 5795 5794 5795 5795 5791 5788 5785 5782 5778 5773 5770 5764 5759 5756 5752 5749 5750 5746 5743 5745 5744 5744 5742 5740 5736 5733 5730 5727 5728 5729 5726 5727 5728 5728 5728 5725 5722 5723
5722 5722 5740 5752 5765 5769 5767 5786 5786 5790 5793 5790 5790 5791 5787 5781 5774 5773 5775 5777 5772 5767 5763 5758 5755 5753 5749 5749 5744 5742 5742 5741 5741 5741 5738 5734 5730 5727 5724 5724 5723 5720 5721 5722 5722 5717 5716 5711 5709
5746 5740 5749 5763 5767 5766 5769 5777 5780 5783 5788 5786 5787 5785 5781 5774 5763 5765 5763 5764 5765 5762 5758 5755 5752 5750 5746 5744 5741 5739 5737 5738 5737 5736 5732 5728 5725 5723 5720 5719 5717 5715 5714 5710 5707 5708 5703 5699 5699
5735 5740 5745 5744 5758 5766 5768 5766 5771 5771 5779 5783 5780 5777 5774 5759 5759 5756 5754 5757 5757 5756 5754 5751 5749 5745 5742 5742 5741 5741 5739 5737 5735 5732 5726 5722 5719 5717 5715 5714 5714 5710 5703 5696 5695 5693 5687 5688 5690
5732 5737 5746 5746 5748 5758 5759 5744 5746 5759 5768 5773 5775 5771 5768 5759 5757 5750 5749 5748 5746 5747 5745 5746 5745 5742 5738 5738 5736 5733 5732 5727 5725 5721 5715 5712 5708 5706 5706 5702 5700 5697 5690 5691 5685 5686 5679 5681 5681
5725 5750 5748 5742 5738 5735 5759 5735 5744 5751 5747 5751 5756 5758 5756 5755 5755 5751 5746 5742 5741 5739 5736 5735 5731 5732 5733 5731 5732 5729 5729 5727 5723 5713 5705 5701 5700 5698 5695 5694 5692 5689 5689 5684 5677 5673 5670 5671 5672
5734 5751 5746 5747 5743 5745 5741 5742 5764 5757 5743 5751 5755 5755 5749 5746 5746 5745 5746 5744 5741 5736 5733 5728 5725 5725 5725 5726 5727 5724 5721 5716 5706 5701 5698 5693 5690 5687 5684 5683 5682 5680 5678 5674 5671 5669 5667 5666 5664
5746 5736 5740 5745 5747 5724 5750 5746 5747 5749 5755 5761 5760 5759 5754 5750 5744 5743 5740 5735 5730 5731 5728 5724 5720 5717 5716 5716 5716 5715 5709 5704 5699 5693 5690 5686 5682 5679 5677 5675 5673 5672 5670 5666 5663 5660 5659 5657 5656
5730 5730 5714 5712 5722 5736 5743 5736 5755 5763 5765 5767 5765 5759 5755 5753 5745 5737 5731 5727 5723 5723 5720 5717 5711 5708 5708 5708 5706 5704 5700 5698 5693 5688 5684 5682 5680 5678 5674 5672 5670 5669 5665 5662 5659 5656 5652 5649 5646
5726 5735 5740 5704 5720 5738 5730 5722 5747 5756 5763 5771 5770 5766 5757 5749 5741 5731 5727 5719 5716 5712 5709 5707 5704 5700 5700 5700 5698 5694 5691 5691 5687 5684 5681 5679 5676 5670 5664 5662 5659 5656 5653 5651 5649 5650 5647 5642 5639
5727 5717 5746 5727 5728 5726 5736 5730 5742 5745 5742 5744 5745 5750 5748 5740 5732 5722 5713 5709 5707 5703 5698 5698 5694 5692 5689 5688 5686 5683 5681 5680 5678 5672 5668 5664 5662 5657 5653 5650 5647 5644 5641 5639 5637 5636 5632 5630 5628
5739 5749 5715 5726 5707 5699 5720 5717 5734 5727 5734 5737 5734 5733 5736 5732 5722 5711 5702 5699 5697 5696 5690 5686 5683 5681 5679 5676 5674 5670 5667 5665 5662 5659 5659 5655 5649 5645 5641 5638 5635 5633 5629 5627 5625 5623 5619 5617 5617
5719 5722 5727 5732 5726 5717 5712 5719 5722 5723 5720 5721 5726 5725 5724 5720 5713 5705 5700 5696 5691 5686 5682 5678 5674 5671 5667 5665 5661 5655 5654 5652 5651 5649 5645 5641 5635 5632 5629 5626 5623 5621 5617 5614 5612 5610 5608 5607 5603
5730 5732 5728 5712 5703 5717 5712 5703 5711 5710 5710 5709 5712 5711 5715 5712 5707 5699 5694 5689 5682 5678 5675 5669 5663 5659 5657 5652 5648 5645 5643 5641 5639 5637 5634 5628 5625 5621 5618 5615 5612 5609 5605 5602 5600 5599 5596 5596 5595